When you browse on this site, cookies collect data to enhance your experience and personalize the content and advertising you see.
Visit our Privacy Policy to learn more. By continuing to use the site, you agree to this use of cookies and data.
  • In Schweiz
  • Länderverzeichnis
  • Für 7 Tage
  • Wassertemperatur
  • Wetterkarte
  • Widgets
  • user-avatar
    Anmelden

    Stündliche Wetter Puzovo

    Heute, 25 August, Sonntag

    Zeit Temperatur Niederschläge Wind Luftdruck Luftfeuchtigkeit
    00:00 +15°C° 0 mm 2 m/S 752 mmHg 94%
    01:00 +14°C° 0 mm 2 m/S 752 mmHg 94%
    02:00 +14°C° 0 mm 2 m/S 752 mmHg 95%
    03:00 +14°C° 0 mm 1 m/S 752 mmHg 95%
    04:00 +13°C° 0 mm 1 m/S 753 mmHg 95%
    05:00 +13°C° 0 mm 1 m/S 753 mmHg 95%
    06:00 +15°C° 0 mm 1 m/S 753 mmHg 89%
    07:00 +16°C° 0 mm 1 m/S 753 mmHg 83%
    08:00 +19°C° 0 mm 1 m/S 754 mmHg 76%
    09:00 +19°C° 0 mm 2 m/S 754 mmHg 70%
    10:00 +20°C° 0 mm 2 m/S 754 mmHg 65%
    11:00 +23°C° 0 mm 2 m/S 754 mmHg 59%
    12:00 +23°C° 0 mm 2 m/S 754 mmHg 57%
    13:00 +23°C° 0 mm 2 m/S 754 mmHg 55%
    14:00 +23°C° 0 mm 2 m/S 754 mmHg 54%
    15:00 +23°C° 0 mm 2 m/S 754 mmHg 58%
    16:00 +23°C° 0 mm 2 m/S 754 mmHg 63%
    17:00 +22°C° 0 mm 1 m/S 754 mmHg 67%
    18:00 +20°C° 0 mm 1 m/S 754 mmHg 71%
    19:00 +18°C° 0 mm 1 m/S 754 mmHg 75%
    20:00 +15°C° 0 mm 1 m/S 754 mmHg 79%
    21:00 +14°C° 0 mm 1 m/S 754 mmHg 82%
    22:00 +14°C° 0 mm 1 m/S 754 mmHg 85%
    23:00 +13°C° 0 mm 1 m/S 754 mmHg 88%

    Morgen, 26 August, Montag

    Zeit Temperatur Niederschläge Wind Luftdruck Luftfeuchtigkeit
    00:00 +13°C° 0 mm 1 m/S 754 mmHg 89%
    01:00 +13°C° 0 mm 1 m/S 755 mmHg 90%
    02:00 +12°C° 0 mm 1 m/S 755 mmHg 91%
    03:00 +12°C° 0 mm 1 m/S 755 mmHg 91%
    04:00 +11°C° 0 mm 0 m/S 754 mmHg 92%
    05:00 +10°C° 0 mm 0 m/S 754 mmHg 92%
    06:00 +12°C° 0 mm 0 m/S 754 mmHg 86%
    07:00 +15°C° 0 mm 0 m/S 754 mmHg 80%
    08:00 +17°C° 0 mm 0 m/S 755 mmHg 75%
    09:00 +20°C° 0 mm 1 m/S 754 mmHg 70%
    10:00 +21°C° 0 mm 1 m/S 754 mmHg 65%
    11:00 +23°C° 0 mm 1 m/S 754 mmHg 60%
    12:00 +23°C° 0 mm 1 m/S 754 mmHg 58%
    13:00 +23°C° 0 mm 2 m/S 753 mmHg 57%
    14:00 +24°C° 0 mm 2 m/S 753 mmHg 56%
    15:00 +23°C° 0 mm 2 m/S 753 mmHg 60%
    16:00 +23°C° 0 mm 2 m/S 752 mmHg 65%
    17:00 +23°C° 0 mm 2 m/S 752 mmHg 70%
    18:00 +20°C° 0 mm 2 m/S 752 mmHg 75%
    19:00 +18°C° 0 mm 2 m/S 752 mmHg 80%
    20:00 +16°C° 0 mm 2 m/S 751 mmHg 85%
    21:00 +16°C° 0 mm 2 m/S 751 mmHg 86%
    22:00 +16°C° 0 mm 2 m/S 751 mmHg 87%
    23:00 +16°C° 0 mm 2 m/S 751 mmHg 88%

    übermorgen, 27 August, Dienstag

    Zeit Temperatur Niederschläge Wind Luftdruck Luftfeuchtigkeit
    00:00 +15°C° 0 mm 2 m/S 751 mmHg 89%
    01:00 +15°C° 0 mm 2 m/S 751 mmHg 90%
    02:00 +15°C° 0 mm 2 m/S 750 mmHg 91%
    03:00 +15°C° 0 mm 2 m/S 750 mmHg 93%
    04:00 +15°C° 0 mm 2 m/S 750 mmHg 94%
    05:00 +15°C° 0 mm 2 m/S 750 mmHg 96%
    06:00 +16°C° 0 mm 3 m/S 750 mmHg 92%
    07:00 +17°C° 0 mm 3 m/S 750 mmHg 88%
    08:00 +19°C° 0 mm 3 m/S 750 mmHg 84%
    09:00 +20°C° 0 mm 3 m/S 750 mmHg 78%
    10:00 +21°C° 0 mm 4 m/S 750 mmHg 73%
    11:00 +22°C° 0 mm 4 m/S 750 mmHg 67%
    12:00 +22°C° 0 mm 4 m/S 750 mmHg 65%
    13:00 +23°C° 0 mm 4 m/S 750 mmHg 62%
    14:00 +23°C° 0 mm 4 m/S 750 mmHg 60%
    15:00 +23°C° 0 mm 4 m/S 750 mmHg 63%
    16:00 +22°C° 0 mm 3 m/S 750 mmHg 66%
    17:00 +21°C° 0 mm 3 m/S 750 mmHg 69%
    18:00 +19°C° 0 mm 3 m/S 750 mmHg 72%
    19:00 +18°C° 0 mm 2 m/S 750 mmHg 76%
    20:00 +16°C° 0 mm 2 m/S 750 mmHg 80%
    21:00 +15°C° 0 mm 2 m/S 751 mmHg 81%
    22:00 +14°C° 0 mm 2 m/S 751 mmHg 82%
    23:00 +13°C° 0 mm 2 m/S 751 mmHg 82%

    28 August, Mittwoch

    Zeit Temperatur Niederschläge Wind Luftdruck Luftfeuchtigkeit
    00:00 +13°C° 0 mm 2 m/S 751 mmHg 85%
    01:00 +12°C° 0 mm 2 m/S 751 mmHg 88%
    02:00 +12°C° 0 mm 2 m/S 751 mmHg 91%
    03:00 +12°C° 0 mm 2 m/S 752 mmHg 93%
    04:00 +10°C° 0 mm 2 m/S 752 mmHg 95%
    05:00 +10°C° 0 mm 2 m/S 752 mmHg 96%
    06:00 +12°C° 0 mm 2 m/S 752 mmHg 90%
    07:00 +12°C° 0 mm 3 m/S 752 mmHg 84%
    08:00 +14°C° 0 mm 3 m/S 753 mmHg 77%
    09:00 +14°C° 0 mm 3 m/S 753 mmHg 71%
    10:00 +16°C° 0 mm 3 m/S 753 mmHg 64%
    11:00 +17°C° 0 mm 3 m/S 753 mmHg 57%
    12:00 +18°C° 0 mm 3 m/S 753 mmHg 54%
    13:00 +18°C° 0 mm 3 m/S 753 mmHg 51%
    14:00 +19°C° 0 mm 3 m/S 753 mmHg 48%
    15:00 +18°C° 0 mm 3 m/S 752 mmHg 52%
    16:00 +17°C° 0 mm 2 m/S 752 mmHg 56%
    17:00 +17°C° 0 mm 2 m/S 752 mmHg 61%
    18:00 +15°C° 0 mm 2 m/S 752 mmHg 64%
    19:00 +13°C° 0 mm 2 m/S 753 mmHg 67%
    20:00 +10°C° 0 mm 2 m/S 753 mmHg 70%
    21:00 +10°C° 0 mm 2 m/S 753 mmHg 72%
    22:00 +9°C° 0 mm 2 m/S 753 mmHg 74%
    23:00 +8°C° 0 mm 2 m/S 754 mmHg 76%

    29 August, Donnerstag

    Zeit Temperatur Niederschläge Wind Luftdruck Luftfeuchtigkeit
    00:00 +7°C° 0 mm 2 m/S 754 mmHg 78%
    01:00 +7°C° 0 mm 2 m/S 754 mmHg 80%
    02:00 +6°C° 0 mm 2 m/S 754 mmHg 83%
    03:00 +6°C° 0 mm 2 m/S 754 mmHg 84%
    04:00 +6°C° 0 mm 2 m/S 754 mmHg 86%
    05:00 +6°C° 0 mm 1 m/S 754 mmHg 87%
    06:00 +7°C° 0 mm 2 m/S 755 mmHg 81%
    07:00 +9°C° 0 mm 2 m/S 755 mmHg 74%
    08:00 +12°C° 0 mm 2 m/S 755 mmHg 67%
    09:00 +13°C° 0 mm 2 m/S 755 mmHg 62%
    10:00 +15°C° 0 mm 2 m/S 755 mmHg 56%
    11:00 +17°C° 0 mm 2 m/S 754 mmHg 51%
    12:00 +17°C° 0 mm 2 m/S 754 mmHg 50%
    13:00 +18°C° 0 mm 2 m/S 754 mmHg 49%
    14:00 +19°C° 0 mm 2 m/S 754 mmHg 48%
    15:00 +18°C° 0 mm 2 m/S 753 mmHg 54%
    16:00 +19°C° 0 mm 1 m/S 753 mmHg 59%
    17:00 +19°C° 0 mm 1 m/S 753 mmHg 64%
    18:00 +16°C° 0 mm 1 m/S 753 mmHg 69%
    19:00 +14°C° 0 mm 1 m/S 753 mmHg 73%
    20:00 +12°C° 0 mm 1 m/S 753 mmHg 77%
    21:00 +11°C° 0 mm 1 m/S 753 mmHg 79%
    22:00 +11°C° 0 mm 1 m/S 753 mmHg 81%
    23:00 +11°C° 0 mm 1 m/S 753 mmHg 82%

    30 August, Freitag

    Zeit Temperatur Niederschläge Wind Luftdruck Luftfeuchtigkeit
    00:00 +10°C° 0 mm 1 m/S 753 mmHg 83%
    01:00 +10°C° 0 mm 1 m/S 753 mmHg 84%
    02:00 +10°C° 0 mm 1 m/S 753 mmHg 85%
    03:00 +9°C° 0 mm 1 m/S 753 mmHg 85%
    04:00 +9°C° 0 mm 1 m/S 753 mmHg 86%
    05:00 +9°C° 0 mm 1 m/S 753 mmHg 87%
    06:00 +11°C° 0 mm 1 m/S 753 mmHg 80%
    07:00 +13°C° 0 mm 1 m/S 753 mmHg 73%
    08:00 +15°C° 0 mm 1 m/S 753 mmHg 67%
    09:00 +16°C° 0 mm 1 m/S 753 mmHg 62%
    10:00 +19°C° 0 mm 1 m/S 753 mmHg 58%
    11:00 +21°C° 0 mm 1 m/S 753 mmHg 54%
    12:00 +21°C° 0 mm 1 m/S 753 mmHg 53%
    13:00 +22°C° 0 mm 1 m/S 753 mmHg 53%
    14:00 +22°C° 0 mm 1 m/S 752 mmHg 53%
    15:00 +21°C° 0 mm 1 m/S 752 mmHg 58%
    16:00 +21°C° 0 mm 1 m/S 752 mmHg 64%
    17:00 +20°C° 0 mm 1 m/S 752 mmHg 69%
    18:00 +19°C° 0 mm 1 m/S 752 mmHg 73%
    19:00 +15°C° 0 mm 0 m/S 752 mmHg 78%
    20:00 +13°C° 0 mm 0 m/S 753 mmHg 82%
    21:00 +13°C° 0 mm 0 m/S 753 mmHg 83%
    22:00 +14°C° 0 mm 1 m/S 753 mmHg 84%
    23:00 +13°C° 0 mm 1 m/S 753 mmHg 84%
    Mehr zeigen